#timestamp,LO_Frequency,Hit 
1501668455.6,286047009.7,P
1501668475.5,286047006.5,P
1501668495.3,286047005.1,P
1501668515.1,286047004.2,N
1501668535.9,286046999.8,N
1501668555.7,286046998.9,N
1501668575.5,286046997.9,N
1501668595.3,286046995.6,N
1501668615.2,286046992.4,N
1501668635.0,286046993.2,N
1501668635.9,286046993.2,N
1501668655.7,286046991.9,N
1501668675.6,286046992.0,N
1501668695.4,286046993.7,N
1501668715.2,286046999.3,N
1501668735.1,286047002.3,N
1501668736.0,286047002.3,N
1501668755.8,286047007.1,N
1501668775.6,286047004.7,N
1501668795.5,286047010.0,N
1501668815.3,286047007.7,N
1501668835.1,286047011.6,N
1501668855.9,286047012.8,N
1501668875.7,286047015.4,N
1501668895.5,286047022.0,P
1501668915.4,286047022.0,N
1501668935.2,286047023.4,N
1501668955.0,286047024.3,N
1501668955.9,286047024.3,N
1501668975.8,286047022.7,N
1501668995.6,286047018.4,N
1501669015.4,286047011.2,N
1501669035.2,286047008.7,N
1501669055.1,286047004.7,N
1501669056.0,286047004.7,N
1501669075.8,286047009.4,N
1501669095.6,286047011.8,N
1501669115.5,286047010.0,N
1501669135.3,286047007.8,N
1501669155.1,286047007.6,N
1501669175.9,286047007.5,N
1501669195.7,286047006.3,N
1501669215.5,286047008.1,N
1501669235.4,286047011.5,N
1501669255.2,286047017.6,N
1501669275.0,286047026.8,P
1501669275.9,286047026.8,P
1501669295.8,286047014.4,N
1501669315.6,286047018.2,N
1501669335.4,286047021.0,P
1501669355.3,286047001.2,N
1501669375.1,286047002.5,N
1501669395.8,286047002.6,N
1501669415.7,286047001.7,N
1501669435.5,286047004.8,N
1501669455.3,286047005.1,N
1501669475.2,286047008.6,N
1501669495.9,286047010.6,N
1501669515.7,286047008.7,N
1501669535.6,286047006.7,N
1501669555.4,286047007.0,N
1501669575.2,286047004.6,N
1501669595.0,286047001.8,N
1501669595.9,286047001.8,N
1501669615.8,286046999.6,N
1501669635.6,286046993.5,N
1501669655.4,286046993.6,N
1501669675.3,286046988.6,N
1501669695.1,286046988.7,N
1501669696.0,286046988.7,N
1501669715.8,286046985.9,N
1501669735.7,286046983.1,N
1501669755.5,286046982.7,N
1501669775.3,286046982.2,N
1501669795.2,286046985.7,N
1501669815.9,286046987.6,N
1501669835.7,286046989.6,N
1501669855.5,286046991.6,N
1501669875.4,286046990.6,N
1501669895.2,286046993.7,N
1501669915.0,286046997.6,N
1501669915.9,286046997.6,N
1501669935.8,286047005.4,N
1501669955.6,286047004.4,N
1501669975.4,286046999.9,N
1501669995.3,286046999.8,N
1501670015.1,286046999.5,N
1501670016.0,286046999.5,N
1501670035.8,286046998.7,N
1501670055.7,286047002.0,N
1501670075.5,286047003.6,N
1501670095.3,286046998.6,N
1501670115.2,286047002.5,N
1501670135.9,286047001.2,N
1501670155.7,286047000.1,N
1501670175.5,286047002.4,N
1501670195.4,286047005.6,N
1501670215.2,286047006.3,N
1501670235.0,286047010.0,N
1501670235.9,286047010.0,N
1501670255.8,286047009.4,N
1501670275.6,286047011.3,N
1501670295.4,286047012.3,N
1501670315.3,286047011.7,N
1501670335.1,286047008.7,N
1501670336.0,286047008.7,N
1501670355.8,286047004.4,N
1501670375.7,286046995.6,N
1501670395.5,286046992.8,N
1501670415.3,286046992.2,N
1501670435.1,286046995.7,N
1501670455.9,286046999.1,N
1501670475.7,286047000.4,N
1501670495.5,286047000.8,N
1501670515.4,286047000.2,N
1501670535.2,286047002.1,N
1501670555.0,286047004.3,N
1501670555.9,286047004.3,N
1501670575.8,286047004.0,N
1501670595.6,286047006.7,N
1501670615.4,286047012.1,N
1501670635.3,286047013.9,N
1501670655.1,286047012.8,N
1501670656.0,286047012.8,N
1501670675.8,286047017.1,N
1501670695.7,286047016.2,N
1501670715.5,286047016.8,N
1501670735.3,286047011.3,N
1501670755.1,286047009.4,N
1501670775.9,286047011.0,N
1501670795.7,286047012.5,N
1501670815.5,286047014.6,N
1501670835.4,286047016.8,N
1501670855.2,286047016.4,N
1501670875.0,286047015.7,N
1501670875.9,286047015.7,N
1501670895.8,286047018.3,N
1501670915.6,286047016.1,N
1501670935.4,286047016.9,N
1501670955.3,286047016.8,N
1501670975.1,286047017.9,N
1501670976.0,286047017.9,N
1501670995.8,286047014.5,N
1501671015.7,286047017.5,P
1501671035.5,286047002.2,N
1501671055.3,286046997.4,N
1501671075.2,286046993.1,N
1501671095.9,286046986.9,N
1501671115.7,286046985.0,N
1501671135.5,286046980.1,N
1501671155.4,286046975.1,N
1501671175.2,286046971.1,N
1501671195.0,286046969.4,N
1501671195.9,286046969.4,N
1501671215.8,286046969.4,N
1501671235.6,286046969.6,N
1501671255.4,286046969.0,N
1501671275.3,286046966.6,N
1501671295.1,286046965.9,N
1501671296.0,286046965.9,N
1501671315.8,286046969.2,N
1501671335.7,286046964.7,N
1501671355.5,286046965.1,N
1501671375.3,286046968.1,N
1501671395.1,286046971.7,N
1501671415.9,286046969.9,N
1501671435.7,286046966.8,N
1501671455.5,286046964.2,N
1501671475.4,286046961.2,N
1501671495.2,286046958.2,N
1501671515.0,286046956.8,N
1501671515.9,286046956.8,N
1501671535.8,286046956.2,N
1501671555.6,286046953.6,P
1501671575.4,286046979.3,N
1501671595.3,286046979.6,N
